www.pogodaiklimat.ru

Погода и климат >> Архив погоды >> Россия >> Якутия >> Батамай


ПОГОДА в Батамае

  • Прогноз погоды в Батамае
  • Монитор погоды в Батамае
  • Климат города

АРХИВ ПОГОДЫ в Батамае

Время (UTC), дата Ветер
(напр.,м/с)
 
Видим.   Явления Облачность Т
(С)
Тd
(С)
f
(%)
Тe
(С)
Тes
(С)
Комфортность P
(гПа)
Po
(гПа)
Тmin
(С)
Tmax
(С)
R
(мм)
S
(см)
12 13.02 штиль 0 50 км ясно -35.7 -39.4 69 -36 -36 опасность
обморожения
1034.0 1022.3 -26.6
15 13.02 штиль 0 50 км ясно -39.2 -43.2 66 -39 -39 опасность
обморожения
1033.9 1022.0
18 13.02 С 1 50 км 3/0
[Ci fib]
-40.9 -45.1 64 -46 -46 опасность
обморожения
1033.5 1021.6
21 13.02 С 1 50 км 4/0
[Ci fib]
-40.6 -44.6 65 -46 -46 опасность
обморожения
1033.3 1021.4
00 14.02 С 1 50 км 10/0
[Ac trans Cs]
-41.9 -46.4 61 -47 -47 опасность
обморожения
1033.0 1021.1 -42.2 25
03 14.02 штиль 0 50 км 4/0
[Ci fib]
-35.4 -39.8 64 -35 -34 опасность
обморожения
1032.5 1020.8
06 14.02 штиль 0 50 км 8/0
[Ci fib]
-34.4 -38.8 64 -34 -34 опасность
обморожения
1031.8 1020.1
09 14.02 штиль 0 50 км 3/0
[Ci fib]
-36.9 -41.1 65 -37 -37 опасность
обморожения
1031.5 1019.6
12 14.02 штиль 0 50 км 3/0
[Ci fib]
-39.3 -43.6 63 -39 -39 опасность
обморожения
1031.2 1019.3 -32.2
15 14.02 С 1 50 км 4/0
[Ci fib]
-42.0 -47.0 58 -47 -47 опасность
обморожения
1031.0 1019.1
18 14.02 С 1 50 км 3/0
[Ci fib]
-42.7 -47.6 58 -48 -48 опасность
обморожения
1030.6 1018.4
21 14.02 штиль 0 50 км 3/0
[Ci fib]
-43.8 -48.3 61 -44 -44 опасность
обморожения
1029.9 1017.7
00 15.02 С 1 50 км 4/0
[Ci fib]
-44.6 -49.0 61 -50 -50 опасность
обморожения
1029.6 1017.4 -44.6 25
03 15.02 С 1 50 км 10/0
[Cs]
-33.6 -38.0 64 -38 -37 опасность
обморожения
1028.4 1016.7
06 15.02 В 1 50 км 3/0
[Ci fib]
-35.5 -40.5 60 -40 -40 опасность
обморожения
1027.9 1016.2
09 15.02 С 1 50 км 3/0
[Ci fib]
-37.0 -41.1 65 -42 -42 опасность
обморожения
1027.2 1015.5
12 15.02 С 1 50 км 3/0
[Ci fib]
-41.2 -45.9 60 -47 -47 опасность
обморожения
1027.4 1015.5 -33.6
15 15.02 штиль 0 50 км ясно -43.4 -48.3 58 -43 -43 опасность
обморожения
1027.5 1015.3
18 15.02 штиль 0 50 км ясно -45.3 -49.8 60 -45 -45 опасность
обморожения
1027.3 1015.1
21 15.02 СЗ 1 50 км ясно -46.6 -52.3 52 -53 -53 опасность
обморожения
1026.9 1014.8
00 16.02 штиль 0 50 км ясно -47.1 -52.3 55 -47 -47 опасность
обморожения
1027.3 1015.1 -47.3 25
03 16.02 штиль 0 50 км ясно -40.0 -44.8 60 -40 -38 опасность
обморожения
1027.6 1015.7
06 16.02 штиль 0 50 км 3/0
[Ci fib]
-36.1 -38.4 79 -36 -35 опасность
обморожения
1026.3 1012.9
09 16.02 штиль 0 50 км ясно -39.0 -43.2 64 -39 -39 опасность
обморожения
1027.9 1016.0
12 16.02 штиль 0 50 км ясно -43.1 -47.6 61 -43 -43 опасность
обморожения
1028.4 1016.2 -35.8
15 16.02 штиль 0 50 км ясно -45.7 -51.4 52 -46 -46 опасность
обморожения
1028.4 1016.2
18 16.02 штиль 0 50 км ясно -47.5 -53.3 51 -48 -48 опасность
обморожения
1028.9 1016.4
21 16.02 С 1 50 км ясно -48.1 -53.3 55 -54 -54 опасность
обморожения
1028.9 1016.4
00 17.02 СВ 1 50 км ясно -49.0 -54.4 53 -55 -55 опасность
обморожения
1029.2 1016.7 -49.1 25
03 17.02 ЮЗ 1 50 км 4/0
[Ci fib]
-40.0 -44.8 60 -45 -44 опасность
обморожения
1028.6 1016.7
06 17.02 ЮВ 1 50 км 10/0
[Ci fib]
-37.9 -43.1 58 -43 -42 опасность
обморожения
1028.9 1017.0
09 17.02 СВ 1 50 км слабый снег 10/0
[Cs]
-37.7 -41.9 65 -43 -43 опасность
обморожения
1028.5 1016.6
12 17.02 СВ 1 20 км слабый снег 10/0
[Cs]
-36.1 -40.4 64 -41 -41 опасность
обморожения
1028.5 1016.8 -36.1 0.2
15 17.02 СВ 3 20 км слабый снег 10/0
[Cs]
-35.9 -40.1 65 -47 -47 опасность
обморожения
1027.6 1015.9
18 17.02 СВ 2 10 км слабый снег 10/0
[Cs]
-35.6 -39.8 65 -44 -44 опасность
обморожения
1027.3 1015.6
21 17.02 СВ 2 20 км слабый снег 10/0
[Cs]
-35.5 -39.8 65 -44 -44 опасность
обморожения
1026.8 1015.1
00 18.02 СВ 3 20 км слабый снег 10/0
[Cs]
-34.9 -39.1 65 -46 -45 опасность
обморожения
1025.9 1014.3 -36.7 0.3 25
03 18.02 СВ 3 20 км слабый снег 10/0
[Cs]
-31.3 -36.6 59 -41 -40 опасность
обморожения
1024.3 1013.0
06 18.02 СВ 4 4000 м слабый снег {метель} 10/0
[Cs]
-29.7 -35.1 59 -41 -41 опасность
обморожения
1023.2 1011.9
09 18.02 СВ 2 20 км слабый снег {метель} 10/0
[Cs]
-30.6 -35.1 65 -38 -38 опасность
обморожения
1022.9 1011.6
12 18.02 СВ 1 20 км слабый снег {метель} 10/0
[Cs]
-31.0 -34.8 69 -35 -35 опасность
обморожения
1022.9 1011.6 -29.7 0.4
15 18.02 СВ 1 20 км слабый снег 10/0
[Cs]
-31.3 -35.0 70 -36 -36 опасность
обморожения
1022.5 1011.2
18 18.02 СВ 1 50 км {снег} 10/0
[Cs]
-33.0 -38.2 59 -37 -37 опасность
обморожения
1022.5 1010.9
21 18.02 СВ 2 50 км 6/0
[Ci fib]
-34.7 -39.9 59 -43 -43 опасность
обморожения
1021.7 1010.1
00 19.02 СВ 3 50 км 3/0
[Ci fib]
-35.6 -40.5 61 -46 -46 опасность
обморожения
1021.9 1010.3 -35.6 0.0 25
03 19.02 СВ 3 50 км 3/0
[Ci fib]
-29.9 -35.3 59 -39 -38 опасность
обморожения
1021.0 1009.7
06 19.02 СВ 2 50 км 3/0
[Ci fib]
-26.3 -32.7 55 -33 -33 опасность
обморожения
1019.8 1008.7
09 19.02 СВ 1 50 км 3/0
[Ci fib]
-30.0 -33.7 70 -34 -34 опасность
обморожения
1020.0 1008.7
12 19.02 С 2 50 км 5/0
[Ci fib]
-31.2 -35.0 69 -39 -39 опасность
обморожения
1019.9 1008.6 -26.3
15 19.02 СВ 2 10 км слабый снег 10/0
[Cs]
-33.9 -35.0 90 -42 -42 опасность
обморожения
1020.0 1008.7
18 19.02 СВ 2 10 км слабый снег 10/0
[Cs]
-30.9 -34.6 70 -39 -39 опасность
обморожения
1019.3 1008.0
21 19.02 СВ 2 10 км слабый снег 10/0
[Cs]
-31.0 -34.8 69 -39 -39 опасность
обморожения
1019.0 1007.7
00 20.02 СВ 3 4000 м слабый снег 10/0
[As op]
-29.4 -33.1 70 -39 -39 опасность
обморожения
1018.7 1007.4 -31.4 0.8 25
03 20.02 СВ 4 50 км позёмок {снег, метель} 10/0
[Ac trans Cs]
-26.6 -31.2 65 -37 -36 опасность
обморожения
1018.0 1006.9
06 20.02 СВ 3 10 км слабый снег {метель} 10/0
[Cs]
-24.1 -28.9 64 -33 -32 опасность
обморожения
1017.9 1006.8

 

Местоположение метеостанции Батамай (Якутия, Россия): широта 63.52 долгота 129.40 высота над уровнем моря 79 м.

В архиве по умолчанию представлена погода в Батамае за последнюю неделю. Архивные данные за месяц целиком и за предыдущие месяцы, начиная с января 2011 года, Вы можете получить, выбрав интересующий диапазон дат из раскрывающегося списка и нажав кнопку "Ввод!".

Внимание! Время в таблицах - всемирное. Для получения местного времени необходимо прибавить поправку, которая в Батамае равна 9 ч.

Смотрите также архив погоды в соседних городах и на ближайших метеорологических станциях:

Погода в Сеген-Кюели (Якутия, Россия) (69 км)
Погода в Намцах (Якутия, Россия) (90 км)
Погода в Сангаре (Якутия, Россия) (109 км)
Погода в Верхоянском Перевозе (Якутия, Россия) (131 км)
Погода в Якутске (Якутия, Россия) (169 км)
Погода в Сого-Хае (Якутия, Россия) (169 км)
Погода в Бердигестяхе (Якутия, Россия) (185 км)
Погода в Себян-Кюеле (Якутия, Россия) (200 км)
Погода в Покровске (Якутия, Россия) (227 км)
Погода в Хатырык-Хомо (Якутия, Россия) (231 км)

Пояснения к столбцам:

Ветер - указаны скорость ветра в м/с - средняя за 10 мин, порывы в срок и между сроками (в фигурных скобках) и направление, откуда дует ветер: С - северный, СВ - северо-восточный, В - восточный, ЮВ - юго-восточный, Ю - южный, ЮЗ - юго-западный, З - западный, СЗ - северо-западный.
Видимость - горизонтальная дальность видимости в метрах или километрах. При видимости от 1 до 10 км при отсутствии осадков обычно наблюдается дымка, при ухудшении видимости до 1 км и менее - туман. В сухую погоду видимость может ухудшаться дымом, пылью или мглою.
Явления - указаны атмосферные явления, наблюдавшиеся в срок или в последний час перед сроком; фигурными скобками обозначены явления, наблюдавшиеся между сроками (за 1-3 часа до срока); квадратными скобками обозначены град или гололедные отложения с указанием их диаметра в мм.
Облачность - указаны через наклонную черту общая и нижняя облачность в баллах и высота нижней границы облаков в метрах; квадратными скобками обозначены формы облаков: Ci - перистые, Cs - перисто-слоистые, Cc - перисто-кучевые, Ac - высококучевые, As - высокослоистые, Sc - слоисто-кучевые, Ns - слоисто-дождевые, Cu - кучевые, Cb - кучево-дождевые. Подробнее классификацию облаков см. в Атласе облаков (PDF).
T - Температура воздуха - температура, измеренная на высоте 2 м над землей.
Td - Температура точки росы - температура, при понижении до которой содержащийся в воздухе водяной пар достигнет насыщения.
f - Относительная влажность воздуха - влажноcть воздуха, измеренная на высоте 2 м над землей.
Te - Эффективная температура - температура, которую ощущает одетый по сезону человек в тени. Характеристика душности погоды. При расчете учитывается влияние влажности воздуха и скорости ветра на теплоощущения человека.
Tes - Эффективная температура на солнце - температура, которую ощущает человек, с поправкой на солнечный нагрев. Характеристика знойности погоды. Зависит от высоты солнца над горизонтом, облачности и скорости ветра. Ночью, в пасмурную погоду, а также при ветре 12 м/с и более поправка равна нулю.
P - Атмосферное давление - приведенное к уровню моря атмосферное давление.
Po - Атмосферное давление - измеренное на уровне метеостанции атмосферное давление.
Tmin - Минимальная температура - минимум температуры воздуха на высоте 2 м над землей.
Tmax - Максимальная температура - максимум температуры воздуха на высоте 2 м над землей.
R - Количество осадков - Количество выпавших осадков, мм. При наведении курсора мыши на число - период времени, за который выпало указанное количество осадков.
S - Снежный покров - Высота снежного покрова, см. При наведении курсора мыши на число - состояние снежного покрова и степень покрытия местности в баллах.